sat.trackr.live / text

‹ back to catalog

STARLINK-5386

NORAD 54834 · 2022-177Q

PAYLOAD ACTIVE UNKNOWN

§ Identity

Operator
Country
US
Launch date
2022-12-28
Launch site
AFETR
Launch vehicle
Mass (kg)
RCS (m²)

Purposes: comms

External: N2YO · Heavens-Above · Gunter

§ Orbital elements

Epoch: 2026-05-25T03:48:49.514688Z

Period
94.27 min
Inclination
43.0066°
Eccentricity
0.0001470
Mean motion
15.27576795 rev/d
Perigee alt
482.1 km
Apogee alt
484.1 km
Semi-major
6,861.2 km
B*
2.8536e-5
RAAN
64.5999°
Arg perigee
267.9707°
Mean anomaly
92.0976°
Rev number
18,862

§ Raw data

STARLINK-53861 54834U 22177Q   26145.15890642  .00000523  00000+0  28536-4 0  99932 54834  43.0066  64.5999 0001470 267.9707  92.0976 15.27576795188629

JSON: /api/v1/satellites/54834 · /tle

For live sub-satellite position, see the globe view (requires WebGL).

§ Visibility from observer

Set your observer location to see the next 7 days of passes ≥ 10°. The values pass through the URL so the page stays shareable.

No JS? Fill the form by hand. The geolocation button needs JavaScript.